Retour au catalogue

MAGION 5

ActifScienceHEO
NORAD 24292·PAYLOAD·🇨🇿 Czechia

Lancé Aug 29, 1996 depuis Plesetsk Cosmodrome

Loading…

Prochains Passages (prochaines 24 heures)

TLE

FraisSource: Space-Track

Époque: Sep 11, 2026, 01:17 UTC

1 24292U 96050B   26254.05365035  .00000024  00000-0 -46091-3 0  9995
2 24292  62.6689 134.9562 5594118 271.3401  28.7309  4.14736509454785

Suivez MAGION 5 en temps réel avec AllMySat

Download on the App Store